User: anonymous   Login
Location: Lake Arresoe
(56.0000°N, 12.5000°E)
Time: 21:12:57
(UTC+01:00)
Language:

XW-2D - Orbit

View from above orbital plane
View from above orbital plane
View from above satellite
View from above satellite

Ground track
Ground track

The orbit data is extracted from the following two-line orbital elements,

1 40907U 15049J   22016.49861936  .00002426  00000-0  12283-3 0  9999
2 40907  97.4910  21.2242 0014287 156.7055 354.7128 15.17882810349902
Epoch (UTC): 16 January 2022 11:58:00
Eccentricity: 0.0014287
inclination: 97.4910°
perigee height: 502 km
apogee height: 522 km
right ascension of ascending node: 21.2242°
argument of perigee: 156.7055°
revolutions per day: 15.17882810
mean anomaly at epoch: 354.7128°
orbit number at epoch: 34990

The dashed part of the orbit path shows where the satellite is in the earth's shadow,  

DLR